QPF
0.05 0.05 0.05 0.04 0.05 0.05 0.07 0.09 0.13 0.14 0.10 0.05 0.02 0.00 0.00 0.01 0.01 0.01 0.01 0.01 0.00 0.00 0.00 0.00 0.00 0.00 0.01 0.01 0.02 0.01 0.01 0.02 0.02 0.02 0.01 0.01 0.02 0.05
0.06 0.05 0.05 0.05 0.06 0.06 0.06 0.07 0.10 0.14 0.11 0.07 0.05 0.02 0.01 0.01 0.01 0.01 0.01 0.01 0.00 0.01 0.01 0.01 0.01 0.01 0.01 0.01 0.01 0.02 0.02 0.03 0.03 0.03 0.03 0.02 0.01 0.01
0.05 0.06 0.05 0.05 0.06 0.05 0.06 0.06 0.08 0.10 0.11 0.09 0.07 0.04 0.02 0.01 0.01 0.01 0.01 0.01 0.00 0.01 0.01 0.01 0.01 0.01 0.01 0.01 0.01 0.01 0.02 0.03 0.04 0.04 0.04 0.04 0.03 0.02
0.04 0.04 0.03 0.05 0.07 0.06 0.06 0.05 0.06 0.08 0.10 0.10 0.08 0.07 0.06 0.04 0.03 0.02 0.01 0.01 0.01 0.02 0.01 0.01 0.01 0.01 0.01 0.01 0.01 0.01 0.01 0.02 0.03 0.04 0.04 0.05 0.04 0.03
0.04 0.03 0.03 0.04 0.05 0.06 0.06 0.05 0.05 0.07 0.09 0.09 0.07 0.07 0.06 0.05 0.05 0.03 0.02 0.02 0.01 0.01 0.01 0.01 0.02 0.02 0.01 0.01 0.01 0.01 0.02 0.02 0.02 0.02 0.03 0.04 0.04 0.03
0.04 0.03 0.03 0.03 0.04 0.05 0.05 0.06 0.06 0.06 0.07 0.07 0.07 0.06 0.06 0.05 0.08 0.05 0.03 0.03 0.02 0.01 0.02 0.02 0.02 0.03 0.02 0.02 0.02 0.03 0.04 0.03 0.02 0.02 0.02 0.02 0.03 0.03
0.03 0.03 0.02 0.02 0.02 0.02 0.03 0.03 0.04 0.05 0.05 0.06 0.06 0.07 0.08 0.07 0.07 0.08 0.06 0.05 0.04 0.02 0.03 0.03 0.03 0.02 0.02 0.03 0.04 0.05 0.05 0.04 0.02 0.02 0.01 0.02 0.02 0.03
0.05 0.05 0.04 0.02 0.02 0.02 0.02 0.02 0.03 0.04 0.04 0.05 0.06 0.08 0.08 0.07 0.07 0.08 0.07 0.07 0.05 0.04 0.05 0.04 0.02 0.03 0.03 0.04 0.05 0.06 0.05 0.03 0.03 0.02 0.01 0.01 0.01 0.01
0.06 0.06 0.04 0.03 0.03 0.03 0.03 0.03 0.03 0.04 0.06 0.07 0.06 0.07 0.07 0.08 0.09 0.08 0.09 0.09 0.07 0.06 0.08 0.06 0.04 0.04 0.03 0.04 0.06 0.06 0.04 0.03 0.02 0.01 0.01 0.01 0.01 0.01
0.04 0.05 0.04 0.04 0.04 0.06 0.07 0.06 0.04 0.04 0.06 0.07 0.06 0.05 0.04 0.06 0.08 0.09 0.08 0.07 0.07 0.06 0.08 0.07 0.04 0.04 0.03 0.03 0.05 0.04 0.03 0.03 0.02 0.01 0.01 0.01 0.01 0.01
0.04 0.04 0.04 0.04 0.04 0.05 0.06 0.06 0.07 0.05 0.03 0.05 0.05 0.04 0.04 0.05 0.06 0.08 0.08 0.08 0.07 0.06 0.07 0.07 0.04 0.04 0.04 0.04 0.04 0.04 0.03 0.03 0.02 0.02 0.01 0.01 0.01 0.01
0.04 0.04 0.05 0.06 0.07 0.06 0.05 0.05 0.05 0.05 0.05 0.06 0.05 0.05 0.04 0.05 0.06 0.06 0.07 0.08 0.07 0.06 0.06 0.07 0.06 0.06 0.05 0.04 0.04 0.04 0.03 0.03 0.03 0.03 0.03 0.02 0.01 0.01
0.07 0.06 0.05 0.04 0.04 0.03 0.03 0.03 0.04 0.03 0.03 0.03 0.03 0.03 0.04 0.04 0.05 0.06 0.06 0.07 0.07 0.06 0.05 0.06 0.06 0.07 0.08 0.06 0.04 0.04 0.04 0.04 0.03 0.03 0.03 0.02 0.02 0.02
0.04 0.03 0.03 0.02 0.01 0.01 0.01 0.01 0.02 0.01 0.02 0.02 0.02 0.03 0.03 0.04 0.05 0.06 0.06 0.07 0.06 0.05 0.05 0.08 0.08 0.08 0.08 0.07 0.05 0.05 0.05 0.04 0.04 0.04 0.03 0.02 0.02 0.02
0.02 0.01 0.01 0.01 0.01 0.01 0.01 0.01 0.01 0.01 0.02 0.02 0.03 0.04 0.04 0.05 0.05 0.06 0.05 0.05 0.05 0.05 0.05 0.06 0.07 0.08 0.09 0.08 0.06 0.05 0.04 0.03 0.03 0.03 0.03 0.03 0.03 0.03
0.02 0.02 0.02 0.02 0.01 0.01 0.01 0.01 0.01 0.01 0.03 0.04 0.05 0.04 0.04 0.04 0.03 0.03 0.03 0.04 0.04 0.04 0.05 0.05 0.06 0.07 0.08 0.09 0.08 0.07 0.06 0.05 0.04 0.05 0.04 0.04 0.04 0.03
0.02 0.02 0.02 0.01 0.01 0.01 0.01 0.02 0.03 0.04 0.04 0.05 0.04 0.03 0.03 0.02 0.02 0.03 0.03 0.03 0.04 0.04 0.04 0.04 0.05 0.05 0.05 0.06 0.08 0.09 0.09 0.08 0.07 0.07 0.06 0.05 0.04 0.04
0.02 0.03 0.02 0.03 0.02 0.03 0.03 0.03 0.04 0.04 0.04 0.04 0.03 0.03 0.02 0.02 0.02 0.02 0.02 0.03 0.04 0.04 0.04 0.05 0.05 0.05 0.05 0.05 0.05 0.05 0.05 0.06 0.06 0.05 0.05 0.04 0.04 0.04
0.02 0.03 0.02 0.03 0.03 0.04 0.05 0.05 0.05 0.04 0.04 0.04 0.03 0.03 0.02 0.03 0.04 0.04 0.05 0.05 0.05 0.04 0.04 0.04 0.05 0.06 0.07 0.06 0.05 0.04 0.03 0.04 0.04 0.05 0.06 0.06 0.05 0.04
0.04 0.04 0.03 0.03 0.04 0.05 0.05 0.05 0.04 0.04 0.03 0.03 0.03 0.03 0.03 0.04 0.04 0.05 0.05 0.04 0.03 0.03 0.03 0.03 0.04 0.05 0.07 0.07 0.07 0.07 0.08 0.07 0.06 0.05 0.05 0.05 0.05 0.04
0.04 0.04 0.04 0.03 0.03 0.03 0.04 0.04 0.05 0.05 0.04 0.04 0.04 0.04 0.04 0.04 0.04 0.04 0.03 0.03 0.03 0.02 0.02 0.03 0.04 0.05 0.06 0.07 0.07 0.07 0.08 0.10 0.08 0.05 0.04 0.04 0.03 0.03
0.02 0.03 0.03 0.03 0.03 0.03 0.04 0.04 0.04 0.04 0.05 0.05 0.05 0.04 0.04 0.05 0.05 0.04 0.03 0.03 0.02 0.03 0.04 0.05 0.05 0.05 0.06 0.07 0.07 0.06 0.06 0.05 0.04 0.03 0.03 0.03 0.03 0.03
0.01 0.01 0.02 0.03 0.03 0.03 0.04 0.04 0.05 0.05 0.06 0.06 0.06 0.06 0.05 0.04 0.04 0.03 0.03 0.03 0.04 0.07 0.09 0.08 0.08 0.08 0.08 0.07 0.05 0.04 0.03 0.04 0.03 0.03 0.02 0.02 0.01 0.01
MSLP
1010.66 1010.78 1010.92 1011.06 1011.15 1011.18 1011.11 1010.94 1010.68 1010.33 1009.94 1009.52 1009.12 1008.75 1008.44 1008.21 1008.06 1008.00 1008.03 1008.14 1008.31 1008.54 1008.80 1009.07 1009.34 1009.58 1009.79 1009.96 1010.07 1010.15 1010.20 1010.23 1010.25 1010.28 1010.33 1010.41 1010.52 1010.68
1011.03 1011.16 1011.30 1011.43 1011.52 1011.53 1011.44 1011.27 1011.01 1010.67 1010.29 1009.88 1009.48 1009.10 1008.76 1008.47 1008.24 1008.08 1007.98 1007.96 1007.99 1008.09 1008.24 1008.43 1008.64 1008.86 1009.07 1009.26 1009.40 1009.51 1009.57 1009.61 1009.62 1009.63 1009.65 1009.70 1009.79 1009.94
1011.49 1011.63 1011.76 1011.87 1011.93 1011.91 1011.80 1011.61 1011.35 1011.03 1010.67 1010.30 1009.93 1009.58 1009.26 1008.96 1008.69 1008.45 1008.25 1008.10 1007.99 1007.94 1007.95 1008.02 1008.13 1008.28 1008.45 1008.62 1008.77 1008.89 1008.98 1009.03 1009.05 1009.06 1009.07 1009.10 1009.18 1009.30
1012.10 1012.22 1012.33 1012.41 1012.43 1012.37 1012.24 1012.03 1011.76 1011.46 1011.14 1010.82 1010.52 1010.22 1009.94 1009.67 1009.39 1009.11 1008.82 1008.55 1008.30 1008.09 1007.94 1007.85 1007.84 1007.88 1007.97 1008.10 1008.23 1008.35 1008.45 1008.52 1008.56 1008.58 1008.59 1008.62 1008.68 1008.78
1012.85 1012.96 1013.04 1013.09 1013.07 1012.97 1012.81 1012.58 1012.31 1012.02 1011.74 1011.47 1011.23 1011.01 1010.78 1010.55 1010.28 1009.97 1009.63 1009.26 1008.88 1008.52 1008.20 1007.95 1007.78 1007.69 1007.68 1007.73 1007.83 1007.93 1008.03 1008.11 1008.17 1008.21 1008.23 1008.25 1008.30 1008.37
1013.72 1013.81 1013.87 1013.89 1013.84 1013.71 1013.52 1013.27 1012.99 1012.71 1012.46 1012.23 1012.05 1011.88 1011.71 1011.52 1011.27 1010.96 1010.57 1010.13 1009.64 1009.15 1008.68 1008.27 1007.95 1007.73 1007.61 1007.58 1007.61 1007.68 1007.77 1007.85 1007.92 1007.96 1007.98 1008.00 1008.02 1008.05
1014.62 1014.70 1014.75 1014.75 1014.69 1014.54 1014.33 1014.06 1013.77 1013.49 1013.24 1013.04 1012.89 1012.76 1012.63 1012.47 1012.25 1011.94 1011.53 1011.04 1010.48 1009.89 1009.31 1008.78 1008.34 1008.00 1007.77 1007.65 1007.62 1007.64 1007.70 1007.76 1007.81 1007.84 1007.85 1007.84 1007.82 1007.81
1015.45 1015.52 1015.58 1015.59 1015.52 1015.36 1015.13 1014.85 1014.55 1014.25 1014.00 1013.79 1013.64 1013.53 1013.42 1013.28 1013.07 1012.78 1012.37 1011.87 1011.28 1010.65 1010.01 1009.41 1008.89 1008.47 1008.16 1007.96 1007.85 1007.82 1007.83 1007.85 1007.86 1007.86 1007.83 1007.77 1007.70 1007.62
1016.09 1016.18 1016.25 1016.27 1016.21 1016.06 1015.83 1015.53 1015.21 1014.89 1014.61 1014.38 1014.21 1014.08 1013.97 1013.85 1013.66 1013.39 1013.01 1012.54 1011.97 1011.34 1010.70 1010.09 1009.54 1009.08 1008.72 1008.46 1008.30 1008.20 1008.14 1008.09 1008.05 1007.98 1007.88 1007.77 1007.63 1007.49
1016.48 1016.59 1016.68 1016.72 1016.67 1016.53 1016.29 1015.98 1015.64 1015.29 1014.97 1014.70 1014.50 1014.35 1014.23 1014.11 1013.94 1013.71 1013.39 1012.97 1012.47 1011.91 1011.32 1010.75 1010.22 1009.76 1009.38 1009.09 1008.87 1008.71 1008.57 1008.45 1008.32 1008.17 1008.00 1007.81 1007.60 1007.39
1016.62 1016.74 1016.84 1016.88 1016.85 1016.70 1016.46 1016.14 1015.77 1015.39 1015.04 1014.73 1014.49 1014.32 1014.18 1014.06 1013.93 1013.74 1013.49 1013.15 1012.74 1012.28 1011.79 1011.29 1010.83 1010.41 1010.04 1009.74 1009.48 1009.26 1009.05 1008.84 1008.61 1008.38 1008.12 1007.86 1007.59 1007.33
1016.55 1016.66 1016.76 1016.79 1016.74 1016.59 1016.33 1015.99 1015.60 1015.19 1014.81 1014.47 1014.21 1014.01 1013.87 1013.76 1013.65 1013.52 1013.33 1013.09 1012.79 1012.44 1012.05 1011.66 1011.28 1010.91 1010.58 1010.28 1010.00 1009.73 1009.45 1009.17 1008.86 1008.55 1008.23 1007.90 1007.60 1007.30
1016.36 1016.45 1016.51 1016.51 1016.42 1016.23 1015.94 1015.58 1015.17 1014.74 1014.34 1013.98 1013.71 1013.50 1013.36 1013.26 1013.18 1013.10 1012.98 1012.82 1012.61 1012.36 1012.08 1011.78 1011.48 1011.19 1010.89 1010.61 1010.32 1010.02 1009.70 1009.36 1009.01 1008.64 1008.27 1007.92 1007.60 1007.31
1016.13 1016.16 1016.15 1016.09 1015.93 1015.69 1015.36 1014.97 1014.53 1014.10 1013.69 1013.34 1013.07 1012.87 1012.74 1012.65 1012.60 1012.54 1012.47 1012.37 1012.23 1012.05 1011.85 1011.63 1011.40 1011.16 1010.91 1010.65 1010.37 1010.06 1009.73 1009.37 1009.00 1008.62 1008.25 1007.90 1007.59 1007.33
1015.88 1015.83 1015.73 1015.58 1015.34 1015.03 1014.65 1014.22 1013.77 1013.34 1012.95 1012.62 1012.37 1012.19 1012.07 1012.00 1011.95 1011.91 1011.85 1011.78 1011.67 1011.53 1011.37 1011.20 1011.02 1010.82 1010.61 1010.39 1010.13 1009.85 1009.53 1009.19 1008.84 1008.48 1008.14 1007.83 1007.56 1007.35
1015.61 1015.45 1015.25 1014.99 1014.66 1014.27 1013.83 1013.38 1012.94 1012.52 1012.16 1011.87 1011.65 1011.50 1011.41 1011.35 1011.30 1011.25 1011.19 1011.09 1010.98 1010.84 1010.69 1010.54 1010.38 1010.21 1010.04 1009.85 1009.64 1009.40 1009.13 1008.84 1008.53 1008.23 1007.94 1007.69 1007.49 1007.34
1015.23 1014.97 1014.66 1014.29 1013.87 1013.41 1012.94 1012.48 1012.05 1011.67 1011.36 1011.13 1010.96 1010.85 1010.78 1010.73 1010.68 1010.60 1010.51 1010.38 1010.23 1010.06 1009.89 1009.73 1009.57 1009.42 1009.28 1009.13 1008.97 1008.79 1008.58 1008.35 1008.11 1007.88 1007.66 1007.48 1007.34 1007.25
1014.64 1014.29 1013.89 1013.43 1012.94 1012.44 1011.95 1011.50 1011.11 1010.80 1010.56 1010.40 1010.30 1010.25 1010.21 1010.17 1010.10 1010.00 1009.86 1009.68 1009.48 1009.27 1009.07 1008.88 1008.71 1008.57 1008.45 1008.33 1008.22 1008.09 1007.95 1007.79 1007.61 1007.45 1007.29 1007.17 1007.08 1007.04
1013.78 1013.36 1012.88 1012.37 1011.84 1011.33 1010.86 1010.46 1010.14 1009.91 1009.76 1009.69 1009.67 1009.67 1009.68 1009.65 1009.58 1009.46 1009.28 1009.06 1008.81 1008.56 1008.32 1008.10 1007.92 1007.77 1007.66 1007.57 1007.49 1007.40 1007.30 1007.19 1007.07 1006.94 1006.83 1006.74 1006.68 1006.66
1012.63 1012.16 1011.64 1011.11 1010.58 1010.10 1009.69 1009.36 1009.13 1009.01 1008.97 1008.99 1009.05 1009.13 1009.18 1009.18 1009.12 1008.99 1008.80 1008.55 1008.27 1007.98 1007.71 1007.47 1007.27 1007.12 1007.00 1006.91 1006.84 1006.77 1006.68 1006.58 1006.47 1006.36 1006.26 1006.18 1006.12 1006.10
1011.21 1010.71 1010.20 1009.68 1009.20 1008.79 1008.46 1008.24 1008.12 1008.10 1008.17 1008.29 1008.45 1008.59 1008.69 1008.73 1008.70 1008.58 1008.39 1008.14 1007.85 1007.56 1007.28 1007.02 1006.81 1006.64 1006.50 1006.39 1006.29 1006.19 1006.09 1005.97 1005.83 1005.70 1005.57 1005.47 1005.40 1005.36
1009.60 1009.12 1008.64 1008.18 1007.77 1007.45 1007.23 1007.12 1007.11 1007.21 1007.38 1007.59 1007.82 1008.03 1008.19 1008.27 1008.28 1008.19 1008.03 1007.81 1007.54 1007.26 1006.98 1006.73 1006.50 1006.30 1006.13 1005.98 1005.83 1005.67 1005.50 1005.32 1005.13 1004.95 1004.78 1004.64 1004.54 1004.48
1007.94 1007.49 1007.06 1006.68 1006.37 1006.16 1006.05 1006.04 1006.14 1006.33 1006.58 1006.86 1007.15 1007.41 1007.62 1007.75 1007.80 1007.77 1007.65 1007.48 1007.26 1007.02 1006.77 1006.52 1006.28 1006.05 1005.83 1005.61 1005.39 1005.15 1004.89 1004.63 1004.37 1004.12 1003.89 1003.71 1003.59 1003.52
Thickness
5771 5771 5769 5770 5771 5770 5768 5763 5753 5746 5748 5756 5759 5763 5762 5759 5755 5751 5748 5744 5740 5737 5734 5730 5727 5725 5722 5721 5719 5717 5715 5714 5712 5710 5709 5707 5706 5705
5769 5767 5767 5767 5767 5767 5765 5763 5760 5752 5747 5754 5756 5759 5758 5757 5753 5750 5747 5743 5740 5736 5733 5729 5727 5724 5721 5719 5717 5715 5713 5711 5709 5707 5706 5704 5703 5701
5767 5765 5764 5764 5762 5762 5762 5760 5757 5754 5747 5751 5754 5755 5754 5752 5749 5747 5745 5742 5738 5736 5733 5729 5726 5723 5720 5717 5715 5713 5711 5709 5707 5704 5703 5701 5699 5698
5764 5762 5761 5761 5759 5758 5756 5755 5754 5753 5748 5744 5747 5749 5748 5748 5746 5744 5742 5740 5738 5735 5732 5728 5725 5721 5718 5716 5713 5711 5708 5706 5704 5702 5700 5698 5696 5694
5761 5759 5758 5756 5754 5754 5752 5751 5750 5751 5748 5744 5743 5744 5744 5743 5740 5739 5738 5737 5735 5733 5730 5726 5723 5720 5717 5714 5711 5708 5705 5703 5700 5698 5696 5694 5693 5691
5759 5757 5756 5753 5751 5750 5749 5747 5746 5744 5743 5740 5738 5738 5736 5737 5734 5730 5729 5729 5729 5729 5726 5724 5721 5718 5715 5712 5709 5706 5703 5700 5698 5695 5693 5691 5689 5687
5756 5755 5753 5751 5749 5747 5745 5742 5740 5737 5735 5733 5731 5730 5728 5727 5725 5724 5721 5722 5723 5723 5720 5719 5716 5713 5711 5708 5705 5703 5700 5698 5695 5692 5690 5688 5685 5683
5750 5750 5748 5747 5745 5743 5741 5738 5735 5731 5729 5726 5724 5722 5721 5721 5720 5718 5715 5713 5712 5718 5714 5713 5713 5709 5708 5706 5704 5701 5697 5695 5692 5689 5686 5684 5682 5679
5746 5744 5743 5743 5740 5737 5735 5732 5730 5727 5724 5720 5717 5716 5715 5716 5714 5711 5709 5707 5706 5710 5708 5705 5707 5705 5706 5704 5701 5698 5694 5691 5688 5685 5682 5679 5677 5674
5742 5740 5737 5735 5734 5730 5728 5725 5723 5721 5719 5716 5715 5714 5713 5712 5710 5707 5705 5704 5704 5705 5703 5697 5699 5699 5700 5698 5696 5693 5690 5687 5684 5680 5677 5674 5671 5669
5737 5735 5733 5730 5726 5723 5720 5717 5715 5714 5714 5712 5710 5708 5706 5705 5703 5700 5697 5694 5693 5695 5697 5693 5692 5691 5691 5690 5689 5687 5684 5682 5678 5675 5672 5669 5666 5663
5731 5730 5727 5723 5719 5715 5712 5709 5705 5705 5706 5705 5702 5701 5700 5698 5696 5694 5691 5687 5685 5685 5689 5686 5684 5682 5680 5683 5681 5679 5677 5674 5671 5669 5666 5663 5660 5656
5724 5722 5720 5716 5712 5708 5705 5703 5700 5699 5698 5696 5695 5695 5694 5692 5690 5688 5686 5682 5679 5678 5682 5679 5676 5674 5671 5671 5673 5672 5670 5667 5664 5661 5658 5656 5652 5649
5716 5715 5713 5709 5705 5701 5698 5696 5694 5691 5690 5688 5687 5687 5686 5685 5684 5682 5681 5679 5676 5674 5674 5671 5668 5665 5663 5661 5661 5663 5662 5660 5658 5655 5652 5649 5644 5641
5710 5707 5704 5700 5698 5695 5692 5690 5687 5684 5682 5681 5680 5679 5680 5679 5678 5676 5674 5672 5670 5669 5667 5664 5661 5659 5656 5654 5654 5653 5651 5650 5649 5646 5643 5640 5637 5634
5699 5698 5695 5693 5691 5689 5687 5684 5681 5679 5677 5675 5673 5673 5673 5672 5669 5668 5665 5663 5660 5659 5659 5657 5655 5651 5648 5647 5645 5644 5642 5640 5639 5637 5634 5632 5631 5628
5692 5690 5689 5686 5684 5683 5681 5679 5677 5674 5670 5668 5666 5665 5663 5662 5660 5659 5656 5654 5650 5648 5648 5648 5646 5643 5641 5637 5635 5634 5633 5631 5629 5627 5624 5621 5620 5619
5683 5683 5682 5680 5678 5676 5673 5671 5669 5667 5664 5661 5659 5656 5654 5652 5651 5649 5646 5643 5640 5639 5637 5636 5633 5631 5629 5628 5626 5624 5622 5620 5619 5617 5614 5611 5610 5610
5675 5676 5675 5673 5671 5668 5666 5663 5661 5660 5657 5653 5650 5648 5646 5644 5642 5639 5636 5633 5631 5629 5627 5625 5622 5618 5615 5615 5616 5615 5612 5610 5608 5606 5604 5602 5600 5601
5671 5669 5667 5665 5663 5660 5658 5655 5653 5651 5648 5645 5642 5640 5638 5634 5632 5629 5627 5624 5622 5620 5618 5616 5613 5610 5606 5604 5604 5604 5603 5600 5598 5595 5594 5593 5591 5591
5663 5660 5658 5656 5653 5651 5649 5646 5643 5640 5638 5635 5632 5629 5627 5624 5621 5619 5617 5614 5611 5610 5608 5607 5606 5603 5600 5597 5595 5594 5593 5591 5589 5586 5584 5582 5581 5580
5654 5651 5649 5647 5644 5641 5638 5636 5633 5630 5627 5624 5621 5617 5615 5612 5610 5608 5606 5604 5602 5600 5599 5598 5597 5593 5590 5587 5586 5585 5583 5581 5579 5578 5576 5575 5572 5570
5645 5642 5640 5637 5634 5631 5628 5625 5622 5618 5615 5612 5610 5606 5604 5602 5600 5598 5596 5594 5592 5591 5589 5588 5586 5583 5581 5579 5577 5576 5575 5573 5570 5568 5567 5566 5564 5563